Back to catalog

NAVSTAR 48

USA 151

AliveNavigationHEO
NORAD 26407·PAYLOAD·🇺🇸 United States

Launched Jul 16, 2000 from Cape Canaveral Space Force Station

Loading…

Next Passes (next 24 hours)

TLE

FreshSource: CelesTrak SupGP

Epoch: Sep 16, 2026, 16:44 UTC

1 26407C 00040A   26259.69756944  .00000000  00000+0  00000+0 0  2594
2 26407  54.8382 211.5302 0118158 303.8664 173.4798  2.00558442    19

Track NAVSTAR 48 in real time with AllMySat

Download on the App Store